Weather in Korostyn

Russia / Novgorod Oblast     58°11′10″N   30°59′14″E
temp.,
°C
wind,
m/s
gust,
m/s
humid.,
%
clouds,
%
prec.,
mm/h
press.,
hPa
HPBL,
m
6 august, fri
fri600:00+13ne6995100 2.6 1013608
03:00+14ne7995100 3.1 1013636
06:00+13nne699247 0.6 1012526
09:00+14ne679388 0.7 1012550
12:00+17ne677585 0.1 1012947
15:00+19ne6761100 0.2 10101115
18:00+18ne7871100 0.0 1010772
21:00+16ne71083100 0.0 1009429
7 august, sat
sat700:00+17ene71089100 0.0 1008515
03:00+17ene71091100 0.2 1007653
06:00+17e71195100 0.8 1006662
09:00+17e6997100 1.7 1005567
12:00+18ese61094100 1.2 1005553
15:00+19se479299 1.6 1005474
18:00+21se46863 1.4 1005384
21:00+18s488932 3.3 1006210
8 august, sun
sun800:00+15ssw479198 0.1 1008197
03:00+15ssw3690100 0.1 1009271
06:00+14ssw3592100 0.0 1009259
09:00+15ssw3491100 0.0 1010284
12:00+18ssw3481100 0.4 1012674
15:00+21wnw246131 0.6 10121169
18:00+21ese2370100 0.1 1013128
21:00+19s2277100 0.1 101425
9 august, mon
mon900:00+18s358391 0.0 1015103
03:00+16sse4690100 0.0 1015124
06:00+17sse498745 0.0 1014212
09:00+20s5873100 0.1 1014415
12:00+23ssw5868100 0.1 1014848
15:00+22wsw697242 0.3 1016677
18:00+22sw4768100 0.0 1016785
21:00+19ssw35845 0.1 101778
10 august, tue
tue1000:00+17ssw36845 0.0 1017129
03:00+15wsw34903 0.0 101892
06:00+15wsw33900 0.0 101892
09:00+19wsw34735 0.0 1019369
12:00+22sw236074 0.0 1018736
15:00+23wsw1352100 0.0 1018958
18:00+24sse015693 0.0 1017775
21:00+20nne1171100 0.0 101711